N624JX KSRQ-KFRG

Flight info

Callsign N624JX
Flight time 2h 12m
Altitude 41000
Route TIDES1 CAMJO/N0517F450 Q109 DFENC SAWED KALDA SARDI1
Aircraft C750/M-SBDE3FGHRWXY/S

Departure

Time 2026-05-05 02:06
Airport Sarasota Bradenton International Airport (KSRQ)

Arrival

Time 2026-05-05 04:18
Airport Republic Airport (KFRG)
Time Latitude Longitude Altitude Speed Heading
2026-05-05 01:51 27.39333 -82.54777 27 ft 0 kts 179°
2026-05-05 01:56 27.39332 -82.54777 27 ft 1 kts 179°
2026-05-05 01:56 27.39330 -82.54781 27 ft 1 kts 228°
2026-05-05 01:56 27.39336 -82.54804 27 ft 7 kts 287°
2026-05-05 01:57 27.39341 -82.54868 27 ft 9 kts 239°
2026-05-05 01:57 27.39288 -82.54876 27 ft 8 kts 181°
2026-05-05 01:57 27.39236 -82.54876 27 ft 7 kts 180°
2026-05-05 01:57 27.39190 -82.54893 27 ft 8 kts 238°
2026-05-05 01:58 27.39207 -82.54950 27 ft 9 kts 314°
2026-05-05 01:58 27.39251 -82.55001 26 ft 9 kts 314°
2026-05-05 01:58 27.39298 -82.55055 28 ft 12 kts 314°
2026-05-05 01:58 27.39361 -82.55126 26 ft 13 kts 314°
2026-05-05 01:59 27.39419 -82.55193 27 ft 11 kts 314°
2026-05-05 01:59 27.39473 -82.55254 26 ft 12 kts 314°
2026-05-05 01:59 27.39533 -82.55323 26 ft 12 kts 314°
2026-05-05 01:59 27.39585 -82.55383 27 ft 10 kts 314°
2026-05-05 02:00 27.39632 -82.55437 27 ft 9 kts 314°
2026-05-05 02:00 27.39686 -82.55499 27 ft 14 kts 314°
2026-05-05 02:00 27.39752 -82.55574 27 ft 13 kts 314°
2026-05-05 02:00 27.39813 -82.55644 17 ft 12 kts 315°
2026-05-05 02:01 27.39866 -82.55705 27 ft 11 kts 314°
2026-05-05 02:01 27.39921 -82.55752 27 ft 9 kts 332°
2026-05-05 02:01 27.39976 -82.55784 27 ft 9 kts 332°
2026-05-05 02:01 27.40026 -82.55831 27 ft 10 kts 314°
2026-05-05 02:02 27.40081 -82.55893 27 ft 12 kts 314°
2026-05-05 02:02 27.40140 -82.55961 27 ft 12 kts 314°
2026-05-05 02:02 27.40195 -82.56024 27 ft 11 kts 314°
2026-05-05 02:02 27.40244 -82.56080 27 ft 9 kts 314°
2026-05-05 02:03 27.40288 -82.56129 27 ft 8 kts 315°
2026-05-05 02:03 27.40326 -82.56174 27 ft 8 kts 314°
2026-05-05 02:03 27.40364 -82.56217 27 ft 7 kts 314°
2026-05-05 02:03 27.40399 -82.56257 27 ft 7 kts 314°
2026-05-05 02:04 27.40433 -82.56296 27 ft 6 kts 314°
2026-05-05 02:04 27.40459 -82.56348 27 ft 8 kts 295°
2026-05-05 02:04 27.40481 -82.56399 27 ft 7 kts 295°
2026-05-05 02:04 27.40505 -82.56455 27 ft 8 kts 295°
2026-05-05 02:05 27.40498 -82.56508 27 ft 7 kts 227°
2026-05-05 02:05 27.40467 -82.56542 27 ft 5 kts 224°
2026-05-05 02:05 27.40442 -82.56539 27 ft 3 kts 138°
2026-05-05 02:05 27.40410 -82.56503 27 ft 25 kts 135°
2026-05-05 02:06 27.40028 -82.56067 27 ft 126 kts 134°
2026-05-05 02:06 27.39323 -82.55275 431 ft 145 kts 132°
2026-05-05 02:06 27.38636 -82.54438 1163 ft 148 kts 128°
2026-05-05 02:06 27.37905 -82.53568 1782 ft 162 kts 130°
2026-05-05 02:07 27.37061 -82.52603 2378 ft 181 kts 131°
2026-05-05 02:07 27.36139 -82.51549 2979 ft 202 kts 133°
2026-05-05 02:07 27.35447 -82.50765 3412 ft 215 kts 133°
2026-05-05 02:07 27.34391 -82.49572 4376 ft 216 kts 134°
2026-05-05 02:08 27.33301 -82.48339 5130 ft 229 kts 136°
2026-05-05 02:08 27.32164 -82.47051 5969 ft 234 kts 136°
2026-05-05 02:08 27.30832 -82.45978 6641 ft 241 kts 162°
2026-05-05 02:08 27.29182 -82.45818 7518 ft 240 kts 190°
2026-05-05 02:09 27.27685 -82.46591 8475 ft 237 kts 220°
2026-05-05 02:09 27.26472 -82.47847 9451 ft 239 kts 225°
2026-05-05 02:09 27.25501 -82.49418 9893 ft 260 kts 250°
2026-05-05 02:09 27.25123 -82.51502 10257 ft 280 kts 261°
2026-05-05 02:10 27.24828 -82.53691 10922 ft 289 kts 261°
2026-05-05 02:10 27.24545 -82.55977 11418 ft 302 kts 268°
2026-05-05 02:10 27.24984 -82.58330 11853 ft 318 kts 290°
2026-05-05 02:10 27.26204 -82.60457 12329 ft 332 kts 309°
2026-05-05 02:11 27.27801 -82.62379 12881 ft 341 kts 311°
2026-05-05 02:11 27.29453 -82.64336 13436 ft 349 kts 311°
2026-05-05 02:11 27.31118 -82.66364 13958 ft 357 kts 310°
2026-05-05 02:11 27.32800 -82.68430 14559 ft 359 kts 310°
2026-05-05 02:12 27.34501 -82.70495 15193 ft 361 kts 311°
2026-05-05 02:12 27.37968 -82.74633 16416 ft 367 kts 314°
2026-05-05 02:12 27.40146 -82.76185 17016 ft 375 kts 332°
2026-05-05 02:13 27.42553 -82.77346 17690 ft 378 kts 334°
2026-05-05 02:13 27.44992 -82.78480 18360 ft 381 kts 334°
2026-05-05 02:13 27.47581 -82.79237 18920 ft 391 kts 349°
2026-05-05 02:13 27.50324 -82.79265 19579 ft 396 kts 356°
2026-05-05 02:14 27.53092 -82.79154 20199 ft 400 kts 357°
2026-05-05 02:14 27.55878 -82.79037 20836 ft 402 kts 356°
2026-05-05 02:14 27.58684 -82.78962 21448 ft 404 kts 354°
2026-05-05 02:14 27.61506 -82.78986 22047 ft 407 kts 354°
2026-05-05 02:15 27.64351 -82.78943 22685 ft 411 kts 355°
2026-05-05 02:15 27.67218 -82.78893 23298 ft 414 kts 354°
2026-05-05 02:15 27.70105 -82.78885 23872 ft 416 kts 353°
2026-05-05 02:15 27.73009 -82.78885 24449 ft 417 kts 353°
2026-05-05 02:16 27.75914 -82.78862 25038 ft 418 kts 354°
2026-05-05 02:16 27.78830 -82.78833 25621 ft 419 kts 354°
2026-05-05 02:16 27.81746 -82.78815 26209 ft 420 kts 353°
2026-05-05 02:16 27.84673 -82.78802 26777 ft 421 kts 353°
2026-05-05 02:17 27.87611 -82.78784 27359 ft 422 kts 353°
2026-05-05 02:17 27.90555 -82.78762 27924 ft 424 kts 353°
2026-05-05 02:17 27.93511 -82.78744 28475 ft 426 kts 353°
2026-05-05 02:17 27.96479 -82.78726 29031 ft 427 kts 353°
2026-05-05 02:18 27.99456 -82.78707 29567 ft 428 kts 353°
2026-05-05 02:18 28.02444 -82.78689 30089 ft 430 kts 353°
2026-05-05 02:18 28.05440 -82.78669 30523 ft 432 kts 353°
2026-05-05 02:18 28.08450 -82.78651 30924 ft 433 kts 353°
2026-05-05 02:19 28.11463 -82.78630 31463 ft 431 kts 353°
2026-05-05 02:19 28.14450 -82.78608 32086 ft 427 kts 352°
2026-05-05 02:19 28.17414 -82.78590 32701 ft 425 kts 352°
2026-05-05 02:19 28.20359 -82.78574 33334 ft 423 kts 352°
2026-05-05 02:20 28.23294 -82.78556 33914 ft 421 kts 352°
2026-05-05 02:20 28.26212 -82.78535 34471 ft 418 kts 352°
2026-05-05 02:20 28.29118 -82.78517 34949 ft 417 kts 352°
2026-05-05 02:20 28.32022 -82.78501 35404 ft 417 kts 352°
2026-05-05 02:21 28.34924 -82.78483 35873 ft 417 kts 351°
2026-05-05 02:21 28.37823 -82.78463 36363 ft 416 kts 351°
2026-05-05 02:21 28.40716 -82.78439 36842 ft 417 kts 352°
2026-05-05 02:21 28.43636 -82.78204 37299 ft 421 kts 355°
2026-05-05 02:22 28.46553 -82.77929 37835 ft 421 kts 354°
2026-05-05 02:22 28.49477 -82.77681 38288 ft 423 kts 354°
2026-05-05 02:22 28.52417 -82.77429 38708 ft 425 kts 354°
2026-05-05 02:22 28.55367 -82.77155 39124 ft 425 kts 354°
2026-05-05 02:23 28.58309 -82.76882 39553 ft 424 kts 354°
2026-05-05 02:23 28.61244 -82.76621 39986 ft 423 kts 353°
2026-05-05 02:23 28.64179 -82.76362 40418 ft 422 kts 353°
2026-05-05 02:23 28.67102 -82.76098 40843 ft 422 kts 353°
2026-05-05 02:24 28.70035 -82.75833 41055 ft 426 kts 353°
2026-05-05 02:24 28.76075 -82.75300 41062 ft 445 kts 354°
2026-05-05 02:25 28.82377 -82.74724 41072 ft 463 kts 354°
2026-05-05 02:25 28.88910 -82.74136 41100 ft 479 kts 354°
2026-05-05 02:26 28.95618 -82.73522 41089 ft 486 kts 355°
2026-05-05 02:26 29.02374 -82.72910 41090 ft 487 kts 355°
2026-05-05 02:27 29.09157 -82.72298 41081 ft 491 kts 355°
2026-05-05 02:27 29.15968 -82.71674 41076 ft 491 kts 355°
2026-05-05 02:28 29.22782 -82.71057 41082 ft 491 kts 355°
2026-05-05 02:28 29.29597 -82.70434 41080 ft 491 kts 355°
2026-05-05 02:29 29.36420 -82.69814 41077 ft 494 kts 355°
2026-05-05 02:29 29.43251 -82.69302 41074 ft 487 kts 351°
2026-05-05 02:30 29.50038 -82.69282 41076 ft 488 kts 352°
2026-05-05 02:30 29.56779 -82.69220 41077 ft 487 kts 351°
2026-05-05 02:31 29.63563 -82.69192 41115 ft 488 kts 352°
2026-05-05 02:31 29.70368 -82.69140 41085 ft 489 kts 352°
2026-05-05 02:32 29.77168 -82.69103 41086 ft 489 kts 352°
2026-05-05 02:32 29.83968 -82.69057 41086 ft 489 kts 352°
2026-05-05 02:33 29.90770 -82.69016 41090 ft 489 kts 352°
2026-05-05 02:33 29.97574 -82.68972 41099 ft 489 kts 352°
2026-05-05 02:34 30.04378 -82.68930 41100 ft 489 kts 352°
2026-05-05 02:34 30.11181 -82.68888 41102 ft 489 kts 352°
2026-05-05 02:35 30.17984 -82.68845 41109 ft 489 kts 352°
2026-05-05 02:35 30.24780 -82.68802 41113 ft 487 kts 353°
2026-05-05 02:36 30.31559 -82.68761 41123 ft 487 kts 352°
2026-05-05 02:36 30.38344 -82.68717 41119 ft 487 kts 353°
2026-05-05 02:37 30.45127 -82.68675 41126 ft 488 kts 353°
2026-05-05 02:37 30.51929 -82.68385 41110 ft 496 kts 359°
2026-05-05 02:38 30.58764 -82.66953 41116 ft 499 kts
2026-05-05 02:38 30.65596 -82.65515 41125 ft 499 kts
2026-05-05 02:39 30.72430 -82.64047 41125 ft 499 kts
2026-05-05 02:39 30.79261 -82.62593 41105 ft 498 kts
2026-05-05 02:40 30.86036 -82.61141 41105 ft 499 kts
2026-05-05 02:40 30.92905 -82.59670 41102 ft 499 kts
2026-05-05 02:41 30.99682 -82.58215 41094 ft 498 kts
2026-05-05 02:41 31.06499 -82.56677 41078 ft 503 kts
2026-05-05 02:42 31.13098 -82.53620 41079 ft 519 kts 19°
2026-05-05 02:42 31.16278 -82.51671 41446 ft 513 kts 19°
2026-05-05 02:42 31.19421 -82.49761 41922 ft 505 kts 19°
2026-05-05 02:42 31.22529 -82.47888 42390 ft 499 kts 19°
2026-05-05 02:43 31.25591 -82.46031 42865 ft 493 kts 19°
2026-05-05 02:43 31.28608 -82.44188 43338 ft 486 kts 19°
2026-05-05 02:43 31.31589 -82.42371 43859 ft 480 kts 19°
2026-05-05 02:43 31.34531 -82.40584 44349 ft 473 kts 19°
2026-05-05 02:44 31.37434 -82.38817 44836 ft 467 kts 19°
2026-05-05 02:44 31.40306 -82.37065 45102 ft 467 kts 19°
2026-05-05 02:44 31.43211 -82.35301 45088 ft 474 kts 19°
2026-05-05 02:45 31.49147 -82.31673 45084 ft 488 kts 19°
2026-05-05 02:45 31.55241 -82.27944 45093 ft 500 kts 19°
2026-05-05 02:46 31.61494 -82.24114 45097 ft 513 kts 20°
2026-05-05 02:46 31.67890 -82.20185 45082 ft 522 kts 20°
2026-05-05 02:47 31.74329 -82.16226 45089 ft 523 kts 20°
2026-05-05 02:47 31.80776 -82.12258 45087 ft 523 kts 20°
2026-05-05 02:48 31.87220 -82.08283 45094 ft 522 kts 20°
2026-05-05 02:48 31.93650 -82.04313 45093 ft 522 kts 20°
2026-05-05 02:49 32.00081 -82.00334 45095 ft 522 kts 20°
2026-05-05 02:49 32.06515 -81.96349 45096 ft 522 kts 20°
2026-05-05 02:50 32.12931 -81.92303 45086 ft 527 kts 24°
2026-05-05 02:50 32.18727 -81.86833 45105 ft 540 kts 36°
2026-05-05 02:51 32.23316 -81.81841 45111 ft 539 kts 36°
2026-05-05 02:51 32.28858 -81.75879 45107 ft 539 kts 36°
2026-05-05 02:52 32.34377 -81.69868 45102 ft 539 kts 36°
2026-05-05 02:52 32.39910 -81.63875 45082 ft 539 kts 36°
2026-05-05 02:53 32.45447 -81.57839 45096 ft 541 kts 37°
2026-05-05 02:53 32.50994 -81.51799 45090 ft 542 kts 37°
2026-05-05 02:54 32.56533 -81.45747 45093 ft 542 kts 37°
2026-05-05 02:54 32.62074 -81.39688 45089 ft 542 kts 37°
2026-05-05 02:55 32.67603 -81.33627 45095 ft 541 kts 37°
2026-05-05 02:55 32.73134 -81.27557 45097 ft 541 kts 37°
2026-05-05 02:56 32.78680 -81.21457 45096 ft 543 kts 37°
2026-05-05 02:56 32.84222 -81.15351 45097 ft 543 kts 37°
2026-05-05 02:57 32.89759 -81.09240 45099 ft 542 kts 37°
2026-05-05 02:57 32.95292 -81.03122 45097 ft 543 kts 37°
2026-05-05 02:58 33.00824 -80.96995 45099 ft 543 kts 37°
2026-05-05 02:58 33.06350 -80.90864 45100 ft 543 kts 38°
2026-05-05 02:59 33.11894 -80.84701 45104 ft 545 kts 38°
2026-05-05 02:59 33.17439 -80.78525 45109 ft 545 kts 38°
2026-05-05 03:00 33.22982 -80.72342 45112 ft 545 kts 38°
2026-05-05 03:00 33.28516 -80.66156 45113 ft 545 kts 38°
2026-05-05 03:01 33.34050 -80.59959 45107 ft 546 kts 38°
2026-05-05 03:01 33.39539 -80.53800 45093 ft 544 kts 38°
2026-05-05 03:02 33.45111 -80.47514 45098 ft 549 kts 40°
2026-05-05 03:02 33.49726 -80.40229 45103 ft 560 kts 56°
2026-05-05 03:03 33.53258 -80.31880 45118 ft 562 kts 60°
2026-05-05 03:03 33.57005 -80.23682 45162 ft 560 kts 56°
2026-05-05 03:04 33.60695 -80.15362 45117 ft 562 kts 59°
2026-05-05 03:04 33.64358 -80.07125 45114 ft 563 kts 57°
2026-05-05 03:05 33.68062 -79.98837 45118 ft 564 kts 59°
2026-05-05 03:05 33.71721 -79.90514 45123 ft 563 kts 58°
2026-05-05 03:06 33.75415 -79.82218 45098 ft 563 kts 59°
2026-05-05 03:06 33.79075 -79.73867 45128 ft 566 kts 58°
2026-05-05 03:07 33.82769 -79.65507 45096 ft 566 kts 59°
2026-05-05 03:07 33.86433 -79.57132 45102 ft 566 kts 59°
2026-05-05 03:08 33.90110 -79.48761 45105 ft 566 kts 59°
2026-05-05 03:08 33.93776 -79.40369 45119 ft 567 kts 59°
2026-05-05 03:09 33.97450 -79.31952 45116 ft 567 kts 59°
2026-05-05 03:09 34.01114 -79.23532 45129 ft 568 kts 59°
2026-05-05 03:10 34.04892 -79.15271 45110 ft 565 kts 55°
2026-05-05 03:10 34.09028 -79.07202 45112 ft 565 kts 55°
2026-05-05 03:11 34.13084 -78.99054 45108 ft 566 kts 56°
2026-05-05 03:11 34.17178 -78.90942 45097 ft 566 kts 55°
2026-05-05 03:12 34.21237 -78.82791 45101 ft 566 kts 56°
2026-05-05 03:12 34.25274 -78.74623 45126 ft 565 kts 56°
2026-05-05 03:13 34.29318 -78.66469 45117 ft 566 kts 56°
2026-05-05 03:13 34.33803 -78.58713 45109 ft 559 kts 43°
2026-05-05 03:14 34.39617 -78.52621 45123 ft 550 kts 31°
2026-05-05 03:14 34.45842 -78.47244 45128 ft 551 kts 32°
2026-05-05 03:15 34.51769 -78.41343 45114 ft 551 kts 34°
2026-05-05 03:15 34.57857 -78.35728 45117 ft 550 kts 32°
2026-05-05 03:16 34.63854 -78.29940 45102 ft 551 kts 34°
2026-05-05 03:16 34.69852 -78.24259 45106 ft 550 kts 32°
2026-05-05 03:17 34.75858 -78.18522 45108 ft 550 kts 34°
2026-05-05 03:17 34.81867 -78.12766 45111 ft 549 kts 33°
2026-05-05 03:18 34.87882 -78.07023 45114 ft 550 kts 33°
2026-05-05 03:18 34.93899 -78.01277 45122 ft 550 kts 33°
2026-05-05 03:19 35.02927 -77.92634 45120 ft 551 kts 33°
2026-05-05 03:19 35.08955 -77.86858 45114 ft 551 kts 33°
2026-05-05 03:20 35.14974 -77.81068 45103 ft 551 kts 34°
2026-05-05 03:20 35.20991 -77.75275 45108 ft 551 kts 34°
2026-05-05 03:21 35.27004 -77.69472 45112 ft 551 kts 34°
2026-05-05 03:21 35.33016 -77.63660 45114 ft 551 kts 34°
2026-05-05 03:22 35.39026 -77.57837 45109 ft 551 kts 34°
2026-05-05 03:22 35.45040 -77.52000 45103 ft 551 kts 34°
2026-05-05 03:23 35.51052 -77.46152 45083 ft 551 kts 34°
2026-05-05 03:23 35.57060 -77.40299 45085 ft 551 kts 34°
2026-05-05 03:24 35.63062 -77.34438 45085 ft 550 kts 34°
2026-05-05 03:24 35.69052 -77.28579 45085 ft 550 kts 34°
2026-05-05 03:25 35.75039 -77.22709 45088 ft 550 kts 34°
2026-05-05 03:25 35.81037 -77.16818 45083 ft 551 kts 34°
2026-05-05 03:26 35.87022 -77.10927 45091 ft 550 kts 34°
2026-05-05 03:26 35.93094 -77.05194 45072 ft 546 kts 28°
2026-05-05 03:27 35.99637 -77.00487 45092 ft 544 kts 25°
2026-05-05 03:27 36.06162 -76.95707 45068 ft 546 kts 27°
2026-05-05 03:28 36.12646 -76.90965 45063 ft 545 kts 26°
2026-05-05 03:28 36.19176 -76.86199 45053 ft 545 kts 26°
2026-05-05 03:29 36.25721 -76.81380 45057 ft 547 kts 26°
2026-05-05 03:29 36.32286 -76.76572 45062 ft 548 kts 26°
2026-05-05 03:30 36.38845 -76.71727 45056 ft 548 kts 26°
2026-05-05 03:30 36.45406 -76.66895 45048 ft 549 kts 26°
2026-05-05 03:31 36.51958 -76.62042 45046 ft 547 kts 26°
2026-05-05 03:31 36.58491 -76.57208 45066 ft 547 kts 26°
2026-05-05 03:32 36.65023 -76.52355 45068 ft 547 kts 26°
2026-05-05 03:32 36.71562 -76.47495 45067 ft 549 kts 27°
2026-05-05 03:33 36.78104 -76.42614 45056 ft 547 kts 27°
2026-05-05 03:33 36.84641 -76.37735 45060 ft 547 kts 27°
2026-05-05 03:34 36.91176 -76.32844 45045 ft 547 kts 27°
2026-05-05 03:34 36.97696 -76.27953 45038 ft 545 kts 26°
2026-05-05 03:35 37.04207 -76.23064 45021 ft 546 kts 26°
2026-05-05 03:35 37.10717 -76.18160 45023 ft 546 kts 26°
2026-05-05 03:36 37.17224 -76.13252 45012 ft 544 kts 27°
2026-05-05 03:36 37.23712 -76.08347 45027 ft 545 kts 27°
2026-05-05 03:37 37.29105 -76.04262 45035 ft 545 kts 27°
2026-05-05 03:37 37.35594 -75.99339 45059 ft 545 kts 27°
2026-05-05 03:38 37.42066 -75.94417 45023 ft 543 kts 27°
2026-05-05 03:38 37.48537 -75.89488 45019 ft 544 kts 27°
2026-05-05 03:39 37.55005 -75.84552 45020 ft 543 kts 27°
2026-05-05 03:39 37.61514 -75.79716 45017 ft 543 kts 26°
2026-05-05 03:40 37.68057 -75.74932 45015 ft 546 kts 26°
2026-05-05 03:40 37.74548 -75.69966 45014 ft 546 kts 28°
2026-05-05 03:41 37.81055 -75.65040 45018 ft 544 kts 26°
2026-05-05 03:41 37.87443 -75.59884 45005 ft 547 kts 31°
2026-05-05 03:42 37.93682 -75.54363 45008 ft 547 kts 30°
2026-05-05 03:42 37.99974 -75.48948 45027 ft 547 kts 30°
2026-05-05 03:43 38.06233 -75.43487 44991 ft 545 kts 28°
2026-05-05 03:43 38.12631 -75.38321 44992 ft 545 kts 28°
2026-05-05 03:44 38.18998 -75.33094 45005 ft 545 kts 28°
2026-05-05 03:44 38.25450 -75.28062 44981 ft 541 kts 22°
2026-05-05 03:45 38.32391 -75.24586 45001 ft 535 kts 14°
2026-05-05 03:45 38.39377 -75.21256 45007 ft 537 kts 17°
2026-05-05 03:46 38.46300 -75.17846 44998 ft 536 kts 15°
2026-05-05 03:46 38.53298 -75.14500 45000 ft 537 kts 16°
2026-05-05 03:47 38.60274 -75.11063 45000 ft 537 kts 16°
2026-05-05 03:47 38.66916 -75.06532 44981 ft 549 kts 32°
2026-05-05 03:48 38.69887 -75.03446 44313 ft 553 kts 38°
2026-05-05 03:48 38.72706 -75.00081 43205 ft 553 kts 41°
2026-05-05 03:48 38.75416 -74.96633 42159 ft 545 kts 41°
2026-05-05 03:48 38.78168 -74.93345 41147 ft 537 kts 38°
2026-05-05 03:49 38.81077 -74.90400 40183 ft 530 kts 33°
2026-05-05 03:49 38.84007 -74.87546 39290 ft 528 kts 34°
2026-05-05 03:49 38.86858 -74.84567 38352 ft 528 kts 37°
2026-05-05 03:49 38.89662 -74.81523 37290 ft 528 kts 37°
2026-05-05 03:50 38.92510 -74.78548 36275 ft 527 kts 36°
2026-05-05 03:50 38.95389 -74.75640 35309 ft 526 kts 36°
2026-05-05 03:50 38.98244 -74.72688 34441 ft 526 kts 37°
2026-05-05 03:50 39.01057 -74.69673 33768 ft 528 kts 38°
2026-05-05 03:51 39.03879 -74.66673 33059 ft 523 kts 37°
2026-05-05 03:51 39.06692 -74.63747 32376 ft 518 kts 37°
2026-05-05 03:51 39.09476 -74.60849 31694 ft 513 kts 37°
2026-05-05 03:51 39.12220 -74.57938 31020 ft 508 kts 38°
2026-05-05 03:52 39.14938 -74.55046 30350 ft 503 kts 38°
2026-05-05 03:52 39.17620 -74.52159 29645 ft 499 kts 39°
2026-05-05 03:52 39.20249 -74.49259 28990 ft 497 kts 39°
2026-05-05 03:52 39.22852 -74.46396 28341 ft 488 kts 39°
2026-05-05 03:53 39.25437 -74.43595 27693 ft 483 kts 39°
2026-05-05 03:53 39.28003 -74.40811 27057 ft 479 kts 39°
2026-05-05 03:53 39.30533 -74.38030 26426 ft 476 kts 39°
2026-05-05 03:53 39.33035 -74.35254 25807 ft 472 kts 39°
2026-05-05 03:54 39.35535 -74.32498 25187 ft 472 kts 38°
2026-05-05 03:54 39.38025 -74.29767 24563 ft 466 kts 39°
2026-05-05 03:54 39.40491 -74.27050 23953 ft 463 kts 39°
2026-05-05 03:54 39.42921 -74.24357 23306 ft 458 kts 39°
2026-05-05 03:55 39.45329 -74.21692 22694 ft 454 kts 39°
2026-05-05 03:55 39.47724 -74.19042 22106 ft 451 kts 39°
2026-05-05 03:55 39.50096 -74.16400 21514 ft 448 kts 39°
2026-05-05 03:55 39.52385 -74.13760 20988 ft 446 kts 43°
2026-05-05 03:56 39.54411 -74.10712 20986 ft 448 kts 49°
2026-05-05 03:56 39.56381 -74.07588 20992 ft 448 kts 49°
2026-05-05 03:56 39.58359 -74.04460 20999 ft 448 kts 49°
2026-05-05 03:56 39.60355 -74.01356 21000 ft 448 kts 49°
2026-05-05 03:57 39.62353 -73.98244 20993 ft 450 kts 49°
2026-05-05 03:57 39.64346 -73.95102 20995 ft 450 kts 49°
2026-05-05 03:57 39.66332 -73.91965 21000 ft 451 kts 49°
2026-05-05 03:57 39.68324 -73.88836 21000 ft 449 kts 49°
2026-05-05 03:58 39.70323 -73.85697 20999 ft 449 kts 49°
2026-05-05 03:58 39.72313 -73.82556 20999 ft 453 kts 49°
2026-05-05 03:58 39.74300 -73.79414 20959 ft 453 kts 49°
2026-05-05 03:58 39.76294 -73.76264 20645 ft 448 kts 49°
2026-05-05 03:59 39.78269 -73.73145 20261 ft 447 kts 49°
2026-05-05 03:59 39.80234 -73.70033 19875 ft 444 kts 49°
2026-05-05 03:59 39.82189 -73.66933 19493 ft 441 kts 49°
2026-05-05 03:59 39.84133 -73.63848 19109 ft 440 kts 49°
2026-05-05 04:00 39.86062 -73.60788 18748 ft 437 kts 48°
2026-05-05 04:00 39.87988 -73.57727 18397 ft 435 kts 49°
2026-05-05 04:00 39.89908 -73.54694 17997 ft 432 kts 47°
2026-05-05 04:00 39.92044 -73.51978 17613 ft 429 kts 39°
2026-05-05 04:01 39.94264 -73.49410 17265 ft 425 kts 39°
2026-05-05 04:01 39.96470 -73.46839 16887 ft 424 kts 39°
2026-05-05 04:01 39.98639 -73.44245 16518 ft 423 kts 40°
2026-05-05 04:01 40.00797 -73.41664 16155 ft 420 kts 40°
2026-05-05 04:02 40.02961 -73.39114 15793 ft 418 kts 39°
2026-05-05 04:02 40.05117 -73.36572 15434 ft 417 kts 39°
2026-05-05 04:02 40.07252 -73.34031 15076 ft 414 kts 40°
2026-05-05 04:02 40.09378 -73.31495 14715 ft 412 kts 40°
2026-05-05 04:03 40.11497 -73.28978 14358 ft 410 kts 39°
2026-05-05 04:03 40.13600 -73.26479 14007 ft 408 kts 40°
2026-05-05 04:03 40.15690 -73.23987 13632 ft 406 kts 40°
2026-05-05 04:03 40.17767 -73.21505 13277 ft 403 kts 40°
2026-05-05 04:04 40.19833 -73.19039 12927 ft 401 kts 40°
2026-05-05 04:04 40.21887 -73.16585 12576 ft 399 kts 40°
2026-05-05 04:04 40.23929 -73.14142 12233 ft 397 kts 40°
2026-05-05 04:04 40.25960 -73.11710 11890 ft 394 kts 40°
2026-05-05 04:05 40.27980 -73.09291 11546 ft 392 kts 40°
2026-05-05 04:05 40.29937 -73.06944 11229 ft 374 kts 40°
2026-05-05 04:05 40.31767 -73.04740 10977 ft 342 kts 39°
2026-05-05 04:05 40.33453 -73.02716 10751 ft 316 kts 39°
2026-05-05 04:06 40.35051 -73.00807 10526 ft 307 kts 39°
2026-05-05 04:06 40.36627 -72.98921 10285 ft 306 kts 39°
2026-05-05 04:06 40.38188 -72.97042 10031 ft 303 kts 39°
2026-05-05 04:06 40.39741 -72.95173 9766 ft 302 kts 39°
2026-05-05 04:07 40.41282 -72.93318 9502 ft 299 kts 39°
2026-05-05 04:07 40.42817 -72.91471 9239 ft 299 kts 39°
2026-05-05 04:07 40.44346 -72.89627 8980 ft 298 kts 39°
2026-05-05 04:07 40.45874 -72.87783 8720 ft 298 kts 39°
2026-05-05 04:08 40.47397 -72.85944 8460 ft 297 kts 39°
2026-05-05 04:08 40.48951 -72.84165 8180 ft 295 kts 32°
2026-05-05 04:08 40.50818 -72.83208 7868 ft 285 kts
2026-05-05 04:08 40.52755 -72.83298 7629 ft 276 kts 342°
2026-05-05 04:09 40.54464 -72.84337 7405 ft 269 kts 321°
2026-05-05 04:09 40.55723 -72.86084 7189 ft 261 kts 303°
2026-05-05 04:09 40.56763 -72.88048 6990 ft 261 kts 301°
2026-05-05 04:09 40.57800 -72.89991 6760 ft 259 kts 302°
2026-05-05 04:10 40.58838 -72.91934 6526 ft 260 kts 302°
2026-05-05 04:10 40.59875 -72.93883 6284 ft 259 kts 301°
2026-05-05 04:10 40.60904 -72.95818 6029 ft 259 kts 302°
2026-05-05 04:10 40.61933 -72.97753 5792 ft 257 kts 302°
2026-05-05 04:11 40.62959 -72.99683 5564 ft 257 kts 301°
2026-05-05 04:11 40.63984 -73.01615 5338 ft 258 kts 301°
2026-05-05 04:11 40.65009 -73.03547 5113 ft 257 kts 301°
2026-05-05 04:11 40.66033 -73.05476 4884 ft 256 kts 301°
2026-05-05 04:12 40.67050 -73.07395 4655 ft 255 kts 301°
2026-05-05 04:12 40.68063 -73.09306 4422 ft 254 kts 300°
2026-05-05 04:12 40.69074 -73.11217 4200 ft 254 kts 300°
2026-05-05 04:12 40.70081 -73.13121 3972 ft 253 kts 300°
2026-05-05 04:13 40.71088 -73.15024 3757 ft 253 kts 300°
2026-05-05 04:13 40.72092 -73.16923 3531 ft 252 kts 300°
2026-05-05 04:13 40.73093 -73.18820 3309 ft 252 kts 300°
2026-05-05 04:13 40.74093 -73.20714 3085 ft 251 kts 300°
2026-05-05 04:14 40.75092 -73.22610 2862 ft 250 kts 300°
2026-05-05 04:14 40.76053 -73.24424 2643 ft 233 kts 299°
2026-05-05 04:14 40.76953 -73.26125 2432 ft 219 kts 298°
2026-05-05 04:14 40.77797 -73.27730 2235 ft 207 kts 297°
2026-05-05 04:15 40.78529 -73.29285 2008 ft 190 kts 285°
2026-05-05 04:15 40.78626 -73.30911 1903 ft 169 kts 255°
2026-05-05 04:15 40.78376 -73.32409 1995 ft 167 kts 258°
2026-05-05 04:15 40.78346 -73.33871 1982 ft 152 kts 263°
2026-05-05 04:16 40.78339 -73.35263 1982 ft 150 kts 262°
2026-05-05 04:16 40.78324 -73.36639 1843 ft 145 kts 261°
2026-05-05 04:16 40.78309 -73.37913 1607 ft 133 kts 261°
2026-05-05 04:16 40.78290 -73.39083 1336 ft 124 kts 257°
2026-05-05 04:17 40.78086 -73.40123 1203 ft 115 kts 238°
2026-05-05 04:17 40.77567 -73.40898 1039 ft 114 kts 214°
2026-05-05 04:17 40.76844 -73.41306 877 ft 115 kts 197°
2026-05-05 04:17 40.76029 -73.41485 662 ft 120 kts 187°
2026-05-05 04:18 40.75194 -73.41474 433 ft 120 kts 181°
2026-05-05 04:18 40.74378 -73.41460 225 ft 114 kts 181°
2026-05-05 04:18 40.73616 -73.41451 71 ft 103 kts 182°
2026-05-05 04:18 40.73065 -73.41444 61 ft 42 kts 179°
2026-05-05 04:19 40.72924 -73.41442 69 ft 13 kts 179°
2026-05-05 04:19 40.72848 -73.41446 67 ft 8 kts 201°
2026-05-05 04:19 40.72848 -73.41496 69 ft 7 kts 312°
2026-05-05 04:19 40.72891 -73.41557 65 ft 10 kts 314°
2026-05-05 04:20 40.72922 -73.41603 68 ft 10 kts 311°
2026-05-05 04:20 40.72959 -73.41660 62 ft 7 kts 300°
2026-05-05 04:20 40.72942 -73.41701 66 ft 5 kts 197°
2026-05-05 04:20 40.72913 -73.41678 67 ft 4 kts 145°
2026-05-05 04:21 40.72900 -73.41681 68 ft 1 kts 221°
2026-05-05 04:21 40.72895 -73.41687 61 ft 0 kts 222°